Theta_e
307 309 322 325 331 336 336 337 330 327 327 327 326 330 332 330 329 332 331 324 335 333 327 324 325 324 324 324 324 326 327 327 327 326 326 326 325 325 323 322 321 319 316
303 305 308 315 326 326 332 335 334 329 327 327 326 328 331 330 329 330 327 327 334 334 329 325 325 326 325 325 325 326 326 326 326 326 326 326 325 324 323 320 320 318 312
300 301 304 307 317 322 325 330 333 330 328 327 325 326 329 329 329 330 332 333 335 334 333 326 326 326 326 326 326 326 325 326 326 326 327 325 323 323 322 321 320 318 309
296 300 301 303 306 316 322 325 326 328 329 329 329 327 329 330 328 330 332 333 333 334 334 326 327 326 326 326 326 326 326 326 327 327 326 325 323 322 322 321 319 315 307
294 297 299 301 303 308 319 323 327 329 328 328 331 330 329 330 331 329 331 330 330 333 333 331 327 327 326 326 326 326 326 326 327 327 326 325 324 322 322 321 318 310 307
294 297 297 298 300 303 308 314 324 326 328 327 328 330 329 328 330 330 332 329 331 333 333 332 327 327 325 326 326 326 326 326 327 327 327 325 323 323 320 317 313 309 306
295 297 296 297 298 300 302 308 313 320 325 326 325 327 331 329 329 330 331 330 331 328 331 332 328 325 324 326 326 326 326 326 326 327 327 325 323 322 321 319 311 310 307
294 295 296 295 296 297 299 301 306 316 317 323 324 325 326 326 327 328 330 331 330 326 330 334 330 328 325 325 325 326 326 326 326 326 327 326 324 323 322 320 311 307 306
293 294 293 294 295 295 296 297 301 304 310 319 320 325 326 325 324 328 329 331 328 331 332 333 332 329 327 325 325 325 326 326 326 326 326 326 324 324 321 320 311 306 305
293 292 293 293 295 295 295 295 297 301 303 307 317 323 324 327 325 328 329 330 330 330 332 331 333 331 330 327 326 326 325 326 326 326 326 327 325 324 320 315 311 307 305
292 291 292 292 293 294 294 294 295 299 301 303 305 310 321 325 325 325 327 325 326 331 331 332 331 333 332 332 327 326 326 326 326 326 326 326 326 325 320 315 313 308 306
291 291 291 292 292 293 294 294 294 296 299 302 304 307 310 316 325 325 325 326 324 325 330 331 332 332 333 334 333 328 327 327 326 326 325 326 326 326 323 315 311 309 308
290 290 290 291 291 292 292 293 295 296 296 299 303 307 309 313 320 324 325 323 326 325 325 328 332 331 332 333 333 332 329 328 326 326 326 325 326 326 326 318 314 310 309
290 290 290 290 291 291 292 291 294 295 296 298 300 305 307 312 316 321 323 323 328 329 331 333 332 332 333 333 333 332 331 329 328 330 328 325 325 325 327 325 318 312 310
289 290 290 290 291 291 291 290 292 294 295 297 298 302 306 312 315 319 321 322 321 330 331 333 333 332 332 332 331 332 332 332 331 331 331 330 327 325 326 327 322 314 310
289 290 290 290 291 290 290 290 291 294 294 296 297 299 305 310 314 320 321 322 322 327 330 331 331 329 328 330 332 333 334 333 330 329 331 331 329 326 324 323 322 315 311
289 289 289 290 290 289 289 289 291 293 294 294 295 298 304 309 314 316 321 321 322 322 323 330 331 331 330 329 332 333 334 335 333 330 330 330 329 328 325 322 321 315 312
289 289 289 289 289 289 289 289 290 292 292 293 294 297 301 306 312 315 319 320 319 321 320 321 329 332 331 330 330 331 334 332 333 332 329 328 327 327 327 325 321 318 313
289 289 289 289 289 289 289 288 289 291 292 292 293 294 298 303 309 312 316 319 320 319 316 320 320 325 330 333 333 332 333 333 333 333 331 329 328 328 326 325 323 318 314
288 289 289 288 289 289 288 288 289 290 292 291 292 293 295 298 302 309 315 318 321 317 316 319 318 320 323 327 333 333 334 334 334 333 333 331 329 328 327 326 324 319 314
288 288 288 288 288 289 288 288 289 289 290 291 292 293 295 295 297 300 307 313 320 320 321 319 318 318 321 323 324 333 333 332 332 332 332 332 331 330 329 327 326 324 317
287 288 288 288 288 288 287 287 288 289 289 290 291 292 293 296 298 300 304 310 312 320 320 317 317 318 317 320 322 324 332 333 333 333 333 332 331 330 329 327 323 319 316
287 287 287 287 287 287 287 287 288 289 289 290 290 291 292 294 297 301 304 310 314 314 320 321 317 319 318 320 318 321 327 332 331 331 333 332 332 331 328 326 323 321 319
286 286 286 286 286 286 286 287 288 288 289 290 290 291 291 292 294 297 302 306 310 313 316 320 319 321 320 319 319 319 323 328 331 331 330 331 331 329 326 324 323 320 320
286 285 285 285 285 285 286 287 287 288 289 289 289 290 291 292 292 294 297 302 306 309 313 316 317 319 321 320 319 318 318 320 322 329 331 330 330 328 328 327 327 327 326
285 285 284 284 284 285 286 286 287 287 288 289 289 289 290 291 292 293 294 296 299 303 308 311 313 315 317 317 318 322 322 320 323 323 325 331 330 331 330 329 328 328 329
Wind_Speed
20 22 18 18 19 23 24 26 28 28 27 26 27 26 28 29 28 27 22 35 31 24 26 29 28 27 26 25 24 23 22 21 19 17 15 13 10 10 9 9 6 3 2
25 23 19 17 19 16 20 27 27 25 26 26 28 28 25 28 29 29 25 28 29 26 26 29 30 29 28 26 25 24 23 21 20 17 16 13 11 12 10 7 7 5 4
30 22 21 18 17 18 16 16 25 22 22 24 26 28 28 25 27 29 25 26 29 28 26 30 31 30 29 28 26 25 23 22 21 19 17 14 12 12 11 8 8 8 7
34 29 21 18 16 17 9 12 19 24 28 27 26 27 30 28 28 28 32 25 31 30 30 30 32 31 30 29 28 27 25 23 22 21 18 15 12 13 13 11 10 10 9
33 34 31 21 18 15 14 8 20 28 34 30 28 29 28 34 32 31 34 34 34 35 33 29 33 33 33 31 30 29 27 25 24 22 20 16 17 17 15 14 14 11 9
29 31 34 30 20 17 14 14 19 20 30 43 37 30 30 28 34 36 35 36 33 38 34 32 35 36 33 33 32 31 29 27 26 24 22 19 18 19 17 16 15 12 11
28 30 33 34 28 21 18 14 14 16 30 30 33 35 29 34 30 36 36 35 35 36 35 39 39 39 37 36 35 33 31 30 28 26 25 21 20 21 20 18 18 15 13
24 28 32 33 33 26 21 16 15 14 13 27 24 33 29 36 27 35 41 42 36 41 39 43 42 41 41 40 38 36 34 32 30 28 27 25 23 23 23 21 20 19 18
21 22 26 29 31 29 24 22 17 14 16 20 12 22 19 25 33 32 43 43 37 41 40 41 42 44 43 43 40 38 36 35 32 30 29 28 26 26 26 23 21 19 19
25 25 25 26 28 30 28 23 21 19 20 19 21 23 29 14 26 24 32 39 36 40 44 42 42 45 44 45 43 41 39 37 35 33 31 31 27 29 26 23 21 21 21
24 26 30 26 25 30 30 26 23 19 18 23 17 22 26 22 38 41 16 45 41 40 45 45 44 43 46 44 43 42 39 38 36 35 33 32 31 30 29 25 23 22 23
26 26 30 27 25 27 30 29 25 22 19 19 24 20 20 20 17 40 38 29 48 52 47 48 46 46 44 43 40 41 40 37 36 36 36 35 34 33 31 26 25 24 24
28 27 28 27 26 26 30 30 28 24 19 17 21 22 22 28 18 21 34 29 45 37 47 47 48 46 46 41 39 37 38 36 34 37 38 37 36 36 35 30 26 27 26
26 26 27 27 26 27 28 31 29 27 21 19 18 20 21 22 34 20 36 39 28 39 35 45 50 49 46 44 43 38 36 32 33 32 33 38 38 38 39 35 30 28 28
25 24 24 26 25 28 28 30 31 28 23 20 18 18 19 22 19 37 36 32 37 35 40 39 38 47 47 47 44 40 37 36 33 34 33 32 35 40 41 40 34 30 28
25 23 24 24 25 28 28 31 31 26 26 21 18 17 18 22 22 25 34 39 36 21 31 37 49 47 49 48 47 45 43 39 37 35 34 32 31 35 41 42 38 33 30
22 22 23 24 25 28 28 34 30 26 26 24 20 18 13 17 25 21 24 38 46 38 4 24 30 45 38 53 52 47 44 43 42 37 39 37 34 32 34 40 40 36 33
19 21 23 25 26 24 26 35 31 26 26 26 24 19 12 14 21 14 29 35 47 33 37 18 24 24 40 34 52 57 51 43 43 41 39 40 39 37 35 35 39 39 37
20 22 26 26 25 25 30 35 32 26 24 24 25 21 16 12 13 18 16 22 35 41 37 39 26 20 23 34 31 50 54 45 42 40 39 38 36 37 37 37 38 39 39
22 25 25 24 24 25 33 36 32 28 24 24 24 22 18 12 13 15 21 19 28 41 40 36 35 28 25 19 23 44 48 51 46 43 43 42 39 37 36 37 38 40 40
24 25 25 24 25 24 32 35 31 27 23 25 25 24 20 15 12 12 15 14 30 34 45 41 36 26 36 28 22 33 44 49 49 53 49 46 45 44 42 42 40 41 43
26 27 27 26 26 24 31 31 28 24 22 23 26 26 23 19 16 13 14 19 13 30 34 34 32 35 31 29 29 26 31 44 43 48 48 47 44 45 44 44 44 45 45
27 28 27 26 29 26 30 30 27 21 21 22 24 26 26 24 20 17 12 20 26 19 28 29 41 42 37 34 28 31 31 41 46 44 47 49 46 43 38 38 40 43 45
27 27 26 27 28 28 28 30 28 23 21 21 22 24 25 26 25 23 15 11 19 24 22 32 24 25 30 31 34 31 37 29 34 41 43 46 46 43 36 35 33 33 37
26 26 25 26 26 30 28 29 28 26 25 23 22 22 23 25 26 25 20 12 11 18 27 30 32 33 28 34 29 31 39 38 34 28 39 42 43 38 39 39 37 35 37
25 24 24 25 26 29 28 29 27 27 27 26 25 23 23 23 24 24 24 20 14 12 17 27 32 36 38 33 34 31 32 33 32 32 35 39 42 42 44 42 38 35 34
Wind_Direction
328 317 285 273 249 225 221 221 232 233 236 234 233 222 218 219 219 217 191 227 208 205 205 198 190 187 187 184 186 186 187 186 186 187 186 184 184 179 182 186 188 192 189
327 315 304 302 260 265 228 221 223 228 237 239 236 229 223 221 227 224 210 211 207 208 208 208 198 194 192 189 191 193 192 191 191 192 192 189 197 188 195 200 192 193 177
355 335 315 308 284 273 256 236 211 212 235 240 241 236 228 221 225 231 218 211 207 211 216 212 206 199 198 195 195 197 197 197 196 196 196 193 200 196 199 207 213 209 186
356 358 342 317 306 286 284 193 227 215 225 228 236 237 232 225 223 234 230 223 209 213 217 214 211 205 203 200 198 200 201 202 200 199 200 199 201 200 201 213 216 206 180
346 4 0 341 311 298 282 255 202 211 225 232 232 230 233 234 227 226 229 226 222 212 217 215 214 211 207 204 202 203 204 204 205 203 203 202 198 194 198 206 211 192 182
349 357 2 360 337 307 294 281 224 221 223 231 242 234 225 231 237 230 227 221 213 213 217 220 214 215 209 208 205 207 208 206 207 207 205 203 215 199 204 202 188 185 184
357 354 352 2 356 343 309 305 290 251 229 229 237 248 242 232 233 240 229 223 223 222 223 222 217 217 211 210 209 208 210 210 209 209 207 209 212 203 203 203 196 191 193
359 357 352 353 1 349 337 313 301 273 268 221 256 245 255 249 240 233 231 231 226 226 223 223 219 219 216 211 210 210 211 213 213 212 210 207 214 209 208 205 204 196 194
3 357 347 349 355 358 345 331 304 306 271 227 218 218 229 239 244 238 226 223 223 219 222 221 221 221 220 215 212 212 212 214 214 214 214 214 214 214 212 211 208 199 197
357 357 350 353 349 355 352 337 322 298 285 277 238 217 224 203 222 239 229 226 218 226 222 223 223 220 223 220 217 214 214 216 216 215 217 217 219 217 218 214 213 206 202
351 357 356 354 352 349 351 345 332 318 290 271 269 249 230 234 251 246 263 220 223 222 226 222 224 223 220 222 220 220 219 218 219 218 218 219 220 226 222 222 222 212 207
350 350 354 353 353 347 348 348 338 326 314 280 271 264 251 237 248 226 240 246 220 219 219 218 223 223 222 219 221 221 222 222 224 224 223 221 221 227 233 223 225 219 213
349 349 354 353 353 348 346 346 346 335 322 305 263 267 255 241 236 237 232 239 219 211 216 222 219 220 225 224 222 220 221 222 223 227 228 227 224 226 233 230 226 227 219
350 352 353 354 351 351 345 342 346 343 331 317 294 264 267 254 237 242 233 243 248 213 207 213 216 218 220 221 225 222 217 221 222 223 225 230 230 227 230 234 231 227 225
353 352 350 352 350 350 346 341 346 346 340 329 312 273 271 253 239 231 237 244 243 209 209 214 216 217 217 218 219 220 220 218 222 224 228 230 231 232 232 233 234 231 226
352 351 349 349 349 350 345 345 347 347 346 338 328 311 268 253 242 221 237 237 233 223 204 212 222 223 219 220 218 217 219 224 229 229 228 231 232 232 233 235 233 231 227
349 352 354 351 347 346 344 345 348 349 350 347 339 322 274 260 242 251 220 235 225 249 245 197 219 221 226 221 215 215 219 227 230 230 230 232 234 234 234 235 236 232 229
359 357 359 355 352 350 345 346 352 350 353 353 347 339 316 269 247 238 230 241 240 245 250 258 207 213 224 224 224 217 218 221 227 228 229 232 237 237 237 237 237 236 233
5 6 8 0 358 355 347 351 353 350 352 353 353 349 333 295 262 251 230 212 230 238 259 254 257 217 210 225 231 217 217 219 223 227 229 232 234 238 239 239 238 238 236
4 8 9 2 360 1 347 351 352 351 355 352 356 355 352 335 294 272 240 228 222 239 245 249 249 245 240 208 220 217 216 221 222 224 228 233 235 237 240 241 240 239 238
6 9 6 5 1 7 350 351 351 353 358 355 359 357 357 357 339 302 264 220 210 214 232 232 241 245 251 241 234 216 220 222 228 231 229 229 230 234 236 239 240 240 238
5 7 8 8 4 6 350 354 354 355 4 1 0 2 359 354 347 336 277 252 226 194 213 231 243 243 249 250 245 240 224 222 215 225 230 235 234 235 237 236 236 236 235
5 4 7 7 6 3 352 358 1 8 7 9 6 3 4 3 358 333 304 246 245 228 203 220 238 247 244 242 247 243 235 228 224 221 227 233 235 237 238 239 240 240 241
6 5 4 7 4 3 0 2 6 10 11 9 15 8 6 7 8 357 333 279 250 253 233 224 229 215 241 248 250 244 245 248 219 231 230 231 234 238 245 248 249 248 246
8 8 5 6 8 5 12 10 8 9 11 13 14 14 7 5 7 6 3 337 276 256 247 244 238 242 230 238 245 249 253 250 246 242 232 233 237 243 247 251 252 253 252
7 8 8 14 12 10 17 17 15 13 12 10 14 18 15 9 5 6 12 10 356 305 264 247 244 241 244 245 242 235 241 242 242 254 247 232 234 240 246 250 252 254 255